Regional Weather Roundup
Issued by NWS

Home | Current Version | Previous Version | Graphics & Text | Print | Product List | Glossary Off
Versions: 1 2 3 4 5 6 7 8 9 10 11 12 13 14 15 16 17 18 19 20 21 22 23 24 25 26 27 28 29 30 31 32 33 34 35 36 37 38 39 40 41 42 43 44 45 46 47 48 49 50

000
ASUS43 KTOP 230359
RWRKS

WEATHER ROUNDUP FOR KANSAS
NATIONAL WEATHER SERVICE GOODLAND KS
1000 PM CST MON JAN 22 2018

NOTE:  "FAIR" INDICATES FEW OR NO CLOUDS BELOW 12,000 FEET WITH NO
SIGNIFICANT WEATHER AND/OR OBSTRUCTIONS TO VISIBILITY.

KSZ001>006-013>018-027>032-041>047-230500-
NORTHWEST KANSAS

CITY           SKY/WX    TMP DP  RH WIND       PRES   REMARKS
GOODLAND       CLEAR     19  11  70 W18       30.08R WCI   4
HAYS           CLEAR     27  21  78 NW13      30.05R WCI  16
HILL CITY      CLEAR     27  19  72 NW14G23   30.05R WCI  16
RUSSELL        CLEAR     29  23  78 NW14      30.01R WCI  18
$$

KSZ061>065-074>080-084>089-230500-
SOUTHWEST KANSAS

CITY           SKY/WX    TMP DP  RH WIND       PRES   REMARKS
DODGE CITY     CLEAR     29  16  58 NW14      30.08R WCI  18
GARDEN CITY    CLEAR     19  12  74 W12       30.10R WCI   7
GREAT BEND     CLEAR     30  22  72 NW16      30.03R WCI  19
LIBERAL        CLEAR     19   9  65 NW10      30.13R WCI   7
$$

KSZ066>073-081>083-090>101-230500-
SOUTHEAST KANSAS

CITY           SKY/WX    TMP DP  RH WIND       PRES   REMARKS
COFFEYVILLE    CLOUDY    39  29  67 NW12G23   29.94R WCI  32
HUTCHINSON     CLEAR     32  24  72 W16       29.99R WCI  21
MEDICINE LODGE   N/A     39  19  44 NW16G26   30.05R WCI  30
NEWTON         CLEAR     32  24  72 NW18      29.96R WCI  20
PARSONS        CLOUDY    37  29  72 NW15G25   29.93R WCI  28
WICHITA INTL   CLEAR     36  23  59 NW18G29   29.98R WCI  26
WICHITA JABRA  CLEAR     35  24  64 NW17G28   29.96R WCI  25
WINFIELD       PTCLDY    36  22  56 W17       30.00R WCI  26
$$

KSZ007>012-019>026-033>040-048>060-102>105-230500-
NORTHEAST KANSAS

CITY           SKY/WX    TMP DP  RH WIND       PRES   REMARKS
CONCORDIA      CLOUDY    30  23  75 NW16G26   29.95R WCI  19
EMPORIA        CLOUDY    33  26  75 NW20G28   29.90R WCI  21
LAWRENCE       LGT SNOW  31  27  85 W21G30    29.82R FOG     WCI  18
MANHATTAN      CLOUDY    32  24  72 NW10G18   29.93R WCI  24
OLATHE IND     CLOUDY    30  28  92 NW23G31   29.79R FOG     WCI  17
OLATHE EXE     LGT SNOW  29  28  96 NW18G31   29.77R FOG     WCI  16
SALINA         CLEAR     34  25  69 NW20G29   29.97R WCI  23
TOPEKA BILLARD CLOUDY    31  26  82 NW23G31   29.86R WCI  18
TOPEKA FORBES  CLOUDY    31  26  82 NW26G33   29.85R WCI  17
$$



USA.gov is the U.S. government's official web portal to all federal, state and local government web resources and services.